#timestamp,LO_Frequency,Hit,Temp,Hum 
1478448015.2,286047004.5,N,0.0,0.0
1478448035.9,286047007.1,N,0.0,0.0
1478448055.7,286047007.2,N,0.0,0.0
1478448075.6,286047007.1,N,0.0,0.0
1478448095.4,286047006.4,N,0.0,0.0
1478448115.2,286047006.5,N,0.0,0.0
1478448135.1,286047006.4,N,0.0,0.0
1478448136.0,286047006.4,N,0.0,0.0
1478448155.8,286047006.1,N,0.0,0.0
1478448175.6,286047008.2,N,0.0,0.0
1478448195.5,286047009.0,N,0.0,0.0
1478448215.3,286047009.0,N,0.0,0.0
1478448235.1,286047006.3,N,0.0,0.0
1478448255.8,286047008.7,N,0.0,0.0
1478448275.7,286047006.3,N,0.0,0.0
1478448295.5,286047006.3,N,0.0,0.0
1478448315.3,286047006.8,N,0.0,0.0
1478448335.2,286047007.0,N,0.0,0.0
1478448355.0,286047006.9,N,0.0,0.0
1478448355.9,286047006.9,N,0.0,0.0
1478448375.7,286047006.8,N,0.0,0.0
1478448395.6,286047007.1,N,0.0,0.0
1478448415.4,286047007.1,N,0.0,0.0
1478448435.2,286047006.6,N,0.0,0.0
1478448455.1,286047008.4,N,0.0,0.0
1478448456.0,286047008.4,N,0.0,0.0
1478448475.8,286047009.1,N,0.0,0.0
1478448495.6,286047008.9,N,0.0,0.0
1478448515.5,286047010.8,N,0.0,0.0
1478448535.3,286047009.8,N,0.0,0.0
1478448555.1,286047012.4,N,0.0,0.0
1478448575.9,286047011.1,N,0.0,0.0
1478448595.7,286047011.3,N,0.0,0.0
1478448615.5,286047010.0,N,0.0,0.0
1478448635.4,286047007.8,N,0.0,0.0
1478448655.2,286047009.2,N,0.0,0.0
1478448675.0,286047007.9,N,0.0,0.0
1478448675.9,286047007.9,N,0.0,0.0
1478448695.8,286047006.6,N,0.0,0.0
1478448715.6,286047006.4,N,0.0,0.0
1478448735.4,286047007.1,N,0.0,0.0
1478448755.2,286047006.7,N,0.0,0.0
1478448775.1,286047005.0,N,0.0,0.0
1478448776.0,286047005.0,N,0.0,0.0
1478448795.8,286047007.6,N,0.0,0.0
1478448815.6,286047004.9,N,0.0,0.0
1478448835.5,286047002.9,N,0.0,0.0
1478448855.3,286047005.7,N,0.0,0.0
1478448875.1,286047003.0,N,0.0,0.0
1478448895.9,286047004.1,N,0.0,0.0
1478448915.7,286047005.9,N,0.0,0.0
1478448935.5,286047005.2,N,0.0,0.0
1478448955.4,286047003.3,N,0.0,0.0
1478448975.2,286047003.2,N,0.0,0.0
1478448995.0,286047001.3,N,0.0,0.0
1478448995.9,286047001.3,N,0.0,0.0
1478449015.8,286047002.6,N,0.0,0.0
1478449035.6,286047004.4,N,0.0,0.0
1478449055.4,286047001.3,N,0.0,0.0
1478449075.3,286046999.9,N,0.0,0.0
1478449095.1,286047002.2,N,0.0,0.0
1478449096.0,286047002.2,N,0.0,0.0
1478449115.8,286047002.5,N,0.0,0.0
1478449135.7,286046999.7,N,0.0,0.0
1478449155.5,286047001.6,N,0.0,0.0
1478449175.3,286047002.1,N,0.0,0.0
1478449195.1,286046999.9,N,0.0,0.0
1478449215.9,286047000.4,N,0.0,0.0
1478449235.7,286047001.0,N,0.0,0.0
1478449255.5,286047000.4,N,0.0,0.0
1478449275.4,286047000.6,N,0.0,0.0
1478449295.2,286047001.2,N,0.0,0.0
1478449315.0,286046998.5,N,0.0,0.0
1478449315.9,286046998.5,N,0.0,0.0
1478449335.8,286046997.1,N,0.0,0.0
1478449355.6,286046999.6,N,0.0,0.0
1478449375.4,286046999.1,N,0.0,0.0
1478449395.3,286046998.7,N,0.0,0.0
1478449415.1,286047001.1,N,0.0,0.0
1478449435.8,286046995.1,N,0.0,0.0
1478449455.7,286046996.8,N,0.0,0.0
1478449475.5,286046997.3,N,0.0,0.0
1478449495.3,286046997.7,N,0.0,0.0
1478449515.2,286046997.2,N,0.0,0.0
1478449535.9,286046997.4,N,0.0,0.0
1478449555.7,286046997.7,N,0.0,0.0
1478449575.6,286046997.7,N,0.0,0.0
1478449595.4,286046997.3,N,0.0,0.0
1478449615.2,286046997.2,N,0.0,0.0
1478449635.0,286046996.7,N,0.0,0.0
1478449636.0,286046996.7,N,0.0,0.0
1478449655.8,286046996.7,N,0.0,0.0
1478449675.6,286046999.0,N,0.0,0.0
1478449695.4,286046997.1,N,0.0,0.0
1478449715.3,286046997.0,N,0.0,0.0
1478449735.1,286046997.3,N,0.0,0.0
1478449755.8,286046998.1,N,0.0,0.0
1478449775.7,286046998.4,N,0.0,0.0
1478449795.5,286046998.6,N,0.0,0.0
1478449815.3,286046998.2,N,0.0,0.0
1478449835.2,286047000.4,N,0.0,0.0
1478449855.9,286046999.4,N,0.0,0.0
1478449875.7,286047001.2,N,0.0,0.0
1478449895.6,286046998.7,N,0.0,0.0
1478449915.4,286047001.2,N,0.0,0.0
1478449935.2,286046998.2,N,0.0,0.0
1478449955.1,286046998.2,N,0.0,0.0
1478449956.0,286046998.2,N,0.0,0.0
1478449975.8,286046998.5,N,0.0,0.0
1478449995.6,286046999.0,N,0.0,0.0
1478450015.5,286046997.8,N,0.0,0.0
1478450035.3,286046996.6,N,0.0,0.0
1478450055.1,286046996.8,N,0.0,0.0
1478450075.8,286046999.2,N,0.0,0.0
1478450095.7,286046998.7,N,0.0,0.0
1478450115.5,286046998.1,N,0.0,0.0
1478450135.3,286046998.2,N,0.0,0.0
1478450155.2,286047001.1,N,0.0,0.0
1478450175.0,286047000.8,N,0.0,0.0
1478450175.9,286047000.8,N,0.0,0.0
1478450195.7,286047001.1,N,0.0,0.0
1478450215.6,286047000.8,N,0.0,0.0
1478450235.4,286046998.9,N,0.0,0.0
1478450255.2,286046999.8,N,0.0,0.0
1478450275.1,286047000.2,N,0.0,0.0
1478450276.0,286047000.2,N,0.0,0.0
1478450295.8,286046999.8,N,0.0,0.0
1478450315.6,286046999.7,N,0.0,0.0
1478450335.5,286047001.0,N,0.0,0.0
1478450355.3,286047000.5,N,0.0,0.0
1478450375.1,286046999.5,N,0.0,0.0
1478450395.9,286046996.6,N,0.0,0.0
1478450415.7,286046999.1,N,0.0,0.0
1478450435.5,286046996.9,N,0.0,0.0
1478450455.4,286046999.9,N,0.0,0.0
1478450475.2,286047000.6,N,0.0,0.0
1478450495.0,286046998.9,N,0.0,0.0
1478450495.9,286046998.9,N,0.0,0.0
1478450515.8,286046999.9,N,0.0,0.0
1478450535.6,286047000.9,N,0.0,0.0
1478450555.4,286047002.5,N,0.0,0.0
1478450575.2,286047004.4,N,0.0,0.0
1478450595.1,286047006.0,N,0.0,0.0
1478450596.0,286047006.0,N,0.0,0.0
1478450615.8,286047004.3,N,0.0,0.0
1478450635.6,286047001.9,N,0.0,0.0
1478450655.5,286047000.0,N,0.0,0.0
1478450675.3,286047002.3,N,0.0,0.0
1478450695.1,286047000.3,N,0.0,0.0
1478450715.9,286046999.9,N,0.0,0.0
1478450735.7,286046998.7,N,0.0,0.0
1478450755.5,286046998.9,N,0.0,0.0
1478450775.4,286046998.1,N,0.0,0.0
1478450795.2,286047000.7,N,0.0,0.0
1478450815.0,286047001.1,N,0.0,0.0
1478450815.9,286047001.1,N,0.0,0.0
1478450835.8,286047000.5,N,0.0,0.0
1478450855.6,286047000.1,N,0.0,0.0
1478450875.4,286047001.8,N,0.0,0.0
1478450895.3,286047001.8,N,0.0,0.0
1478450915.1,286047001.1,N,0.0,0.0
1478450916.0,286047001.1,N,0.0,0.0
1478450935.8,286047002.1,N,0.0,0.0
1478450955.7,286047003.9,N,0.0,0.0
1478450975.5,286047003.5,N,0.0,0.0
1478450995.3,286047003.4,N,0.0,0.0
1478451015.1,286047003.1,N,0.0,0.0
1478451035.9,286047000.5,N,0.0,0.0
1478451055.7,286047000.1,N,0.0,0.0
1478451075.5,286047002.6,N,0.0,0.0
1478451095.4,286047002.5,N,0.0,0.0
1478451115.2,286047002.2,N,0.0,0.0
1478451135.0,286047002.4,N,0.0,0.0
1478451135.9,286047002.4,N,0.0,0.0
1478451155.8,286047005.9,N,0.0,0.0
1478451175.6,286047001.9,N,0.0,0.0
1478451195.4,286047001.3,N,0.0,0.0
1478451215.3,286047003.8,N,0.0,0.0
1478451235.1,286047004.1,N,0.0,0.0
1478451255.8,286047003.4,N,0.0,0.0
1478451275.7,286047007.3,N,0.0,0.0
1478451295.5,286047006.9,N,0.0,0.0
1478451315.3,286047004.9,N,0.0,0.0
1478451335.2,286047008.4,N,0.0,0.0
1478451355.9,286047008.9,N,0.0,0.0
1478451375.7,286047009.6,N,0.0,0.0
1478451395.6,286047009.0,N,0.0,0.0
1478451415.4,286047004.8,N,0.0,0.0
1478451435.2,286047008.3,N,0.0,0.0
1478451455.0,286047004.1,N,0.0,0.0
1478451455.9,286047004.1,N,0.0,0.0
1478451475.8,286047002.9,N,0.0,0.0
1478451495.6,286047005.4,N,0.0,0.0
1478451515.4,286047003.1,N,0.0,0.0
1478451535.3,286047009.4,N,0.0,0.0
1478451555.1,286047011.6,N,0.0,0.0
1478451575.8,286047008.3,N,0.0,0.0
1478451595.7,286047006.9,N,0.0,0.0
